Time,TemperatureF,DewpointF,PressureIn,WindDirection,WindDirectionDegrees,WindSpeedMPH,WindSpeedGustMPH,Humidity,HourlyPrecipIn,Conditions,Clouds,dailyrainin,SoftwareType,DateUTC
2013-07-09 00:01:00,60.0,46.0,-100.00,WSW,254,1.0,4.0,61,0.00,,,0.00,,2013-07-09 06:01:00,
2013-07-09 00:11:00,60.0,46.0,-100.00,WSW,254,1.0,4.0,61,0.00,,,0.00,,2013-07-09 06:11:00,
2013-07-09 00:22:00,60.0,46.0,-100.00,WSW,254,1.0,4.0,61,0.00,,,0.00,,2013-07-09 06:22:00,
2013-07-09 00:33:00,59.0,47.0,-100.00,West,260,2.0,2.0,63,0.00,,,0.00,,2013-07-09 06:33:00,
2013-07-09 00:43:00,59.0,47.0,-100.00,West,271,1.0,3.0,64,0.00,,,0.00,,2013-07-09 06:43:00,
2013-07-09 01:02:00,59.0,48.0,-100.00,WSW,258,0.0,2.0,67,0.00,,,0.00,,2013-07-09 07:02:00,
2013-07-09 01:11:00,59.0,48.0,-100.00,WSW,258,0.0,2.0,67,0.00,,,0.00,,2013-07-09 07:11:00,
2013-07-09 01:22:00,58.0,48.0,-100.00,WSW,237,1.0,2.0,70,0.00,,,0.00,,2013-07-09 07:22:00,
2013-07-09 01:30:00,58.0,48.0,-100.00,WSW,239,1.0,2.0,70,0.00,,,0.00,,2013-07-09 07:30:00,
2013-07-09 01:33:00,59.0,48.0,-100.00,SW,233,1.0,2.0,68,0.00,,,0.00,,2013-07-09 07:33:00,
2013-07-09 01:42:00,58.0,48.0,-100.00,SW,236,1.0,1.0,69,0.00,,,0.00,,2013-07-09 07:42:00,
2013-07-09 02:01:00,58.0,48.0,-100.00,WSW,239,1.0,2.0,70,0.00,,,0.00,,2013-07-09 08:01:00,
2013-07-09 02:11:00,58.0,48.0,-100.00,WSW,239,1.0,2.0,70,0.00,,,0.00,,2013-07-09 08:11:00,
2013-07-09 02:22:00,58.0,48.0,-100.00,WSW,239,1.0,2.0,70,0.00,,,0.00,,2013-07-09 08:22:00,
2013-07-09 02:43:00,57.0,48.0,-100.00,WSW,256,1.0,2.0,72,0.00,,,0.00,,2013-07-09 08:43:00,
2013-07-09 03:00:00,55.0,48.0,-100.00,WNW,291,0.0,1.0,78,0.00,,,0.00,,2013-07-09 09:00:00,
2013-07-09 03:02:00,57.0,48.0,-100.00,WSW,251,1.0,1.0,73,0.00,,,0.00,,2013-07-09 09:02:00,
2013-07-09 03:11:00,56.0,48.0,-100.00,WSW,251,1.0,1.0,74,0.00,,,0.00,,2013-07-09 09:11:00,
2013-07-09 03:22:00,56.0,48.0,-100.00,WSW,251,1.0,1.0,74,0.00,,,0.00,,2013-07-09 09:22:00,
2013-07-09 03:34:00,55.0,48.0,-100.00,WNW,291,0.0,1.0,78,0.00,,,0.00,,2013-07-09 09:34:00,
2013-07-09 03:42:00,55.0,48.0,-100.00,WNW,291,0.0,1.0,78,0.00,,,0.00,,2013-07-09 09:42:00,
2013-07-09 03:53:00,55.0,48.0,-100.00,WNW,291,0.0,1.0,78,0.00,,,0.00,,2013-07-09 09:53:00,
2013-07-09 04:11:00,52.0,47.0,-100.00,ESE,121,0.0,0.0,85,0.00,,,0.00,,2013-07-09 10:11:00,
2013-07-09 04:22:00,52.0,47.0,-100.00,ESE,121,0.0,0.0,85,0.00,,,0.00,,2013-07-09 10:22:00,
2013-07-09 04:33:00,52.0,47.0,-100.00,ESE,107,0.0,0.0,85,0.00,,,0.00,,2013-07-09 10:33:00,
2013-07-09 04:42:00,53.0,47.0,-100.00,West,275,3.0,4.0,81,0.00,,,0.00,,2013-07-09 10:42:00,
2013-07-09 05:01:00,54.0,48.0,-100.00,WSW,250,2.0,2.0,78,0.00,,,0.00,,2013-07-09 11:01:00,
2013-07-09 05:11:00,55.0,48.0,-100.00,WSW,254,1.0,2.0,77,0.00,,,0.00,,2013-07-09 11:11:00,
2013-07-09 05:22:00,55.0,48.0,-100.00,WSW,254,1.0,2.0,77,0.00,,,0.00,,2013-07-09 11:22:00,
2013-07-09 05:33:00,55.0,48.0,-100.00,West,263,1.0,2.0,77,0.00,,,0.00,,2013-07-09 11:33:00,
2013-07-09 05:42:00,52.0,47.0,-100.00,NE,34,0.0,1.0,85,0.00,,,0.00,,2013-07-09 11:42:00,
2013-07-09 05:53:00,52.0,47.0,-100.00,NE,34,0.0,1.0,85,0.00,,,0.00,,2013-07-09 11:53:00,
2013-07-09 06:01:00,52.0,47.0,-100.00,NE,34,0.0,1.0,85,0.00,,,0.00,,2013-07-09 12:01:00,
2013-07-09 06:11:00,50.0,47.0,-100.00,East,96,0.0,0.0,88,0.00,,,0.00,,2013-07-09 12:11:00,
2013-07-09 06:22:00,50.0,47.0,-100.00,East,96,0.0,0.0,88,0.00,,,0.00,,2013-07-09 12:22:00,
2013-07-09 06:33:00,50.0,47.0,-100.00,East,96,0.0,0.0,88,0.00,,,0.00,,2013-07-09 12:33:00,
2013-07-09 06:43:00,50.0,47.0,-100.00,East,96,0.0,0.0,88,0.00,,,0.00,,2013-07-09 12:43:00,
2013-07-09 07:21:00,49.0,47.0,-100.00,ENE,66,2.0,3.0,93,0.00,,,0.00,,2013-07-09 13:21:00,
2013-07-09 07:53:00,52.0,47.0,-100.00,NE,52,2.0,3.0,86,0.00,,,0.00,,2013-07-09 13:53:00,
2013-07-09 08:01:00,52.0,47.0,-100.00,NE,52,2.0,3.0,86,0.00,,,0.00,,2013-07-09 14:01:00,
2013-07-09 08:22:00,55.0,48.0,-100.00,ENE,75,2.0,4.0,78,0.00,,,0.00,,2013-07-09 14:22:00,
2013-07-09 08:34:00,57.0,49.0,-100.00,ENE,73,3.0,5.0,75,0.00,,,0.00,,2013-07-09 14:34:00,
2013-07-09 08:43:00,59.0,50.0,-100.00,ENE,65,4.0,5.0,72,0.00,,,0.00,,2013-07-09 14:43:00,
2013-07-09 08:53:00,59.0,50.0,-100.00,ENE,65,4.0,5.0,72,0.00,,,0.00,,2013-07-09 14:53:00,
2013-07-09 09:22:00,62.0,49.0,-100.00,ESE,102,3.0,4.0,62,0.00,,,0.00,,2013-07-09 15:22:00,
2013-07-09 09:33:00,63.0,49.0,-100.00,ESE,114,4.0,6.0,60,0.00,,,0.00,,2013-07-09 15:33:00,
2013-07-09 09:43:00,64.0,50.0,-100.00,ENE,68,2.0,4.0,61,0.00,,,0.00,,2013-07-09 15:43:00,
2013-07-09 09:52:00,64.0,50.0,-100.00,ENE,68,2.0,4.0,61,0.00,,,0.00,,2013-07-09 15:52:00,
2013-07-09 10:01:00,64.0,50.0,-100.00,ENE,68,2.0,4.0,61,0.00,,,0.00,,2013-07-09 16:01:00,
2013-07-09 10:11:00,64.0,50.0,-100.00,ENE,68,2.0,4.0,61,0.00,,,0.00,,2013-07-09 16:11:00,
2013-07-09 10:34:00,66.0,49.0,-100.00,East,92,4.0,6.0,53,0.00,,,0.00,,2013-07-09 16:34:00,
2013-07-09 10:43:00,67.0,48.0,-100.00,ENE,75,2.0,6.0,50,0.00,,,0.00,,2013-07-09 16:43:00,
2013-07-09 10:53:00,67.0,48.0,-100.00,ENE,75,2.0,6.0,50,0.00,,,0.00,,2013-07-09 16:53:00,
2013-07-09 11:00:00,71.0,47.0,-100.00,ENE,76,3.0,6.0,43,0.00,,,0.00,,2013-07-09 17:00:00,
2013-07-09 11:02:00,68.0,48.0,-100.00,SE,128,4.0,8.0,49,0.00,,,0.00,,2013-07-09 17:02:00,
2013-07-09 11:22:00,69.0,47.0,-100.00,SE,128,3.0,6.0,45,0.00,,,0.00,,2013-07-09 17:22:00,
2013-07-09 11:45:00,71.0,47.0,-100.00,ENE,76,3.0,6.0,43,0.00,,,0.00,,2013-07-09 17:45:00,
2013-07-09 11:53:00,71.0,47.0,-100.00,ENE,76,3.0,6.0,43,0.00,,,0.00,,2013-07-09 17:53:00,
2013-07-09 12:22:00,74.0,50.0,-100.00,ESE,102,4.0,5.0,43,0.00,,,0.00,,2013-07-09 18:22:00,
2013-07-09 12:32:00,75.0,48.0,-100.00,ENE,75,4.0,7.0,38,0.00,,,0.00,,2013-07-09 18:32:00,
2013-07-09 12:42:00,76.0,46.0,-100.00,NE,34,3.0,4.0,34,0.00,,,0.00,,2013-07-09 18:42:00,
2013-07-09 13:01:00,78.0,40.0,-100.00,ENE,61,4.0,8.0,26,0.00,,,0.00,,2013-07-09 19:01:00,
2013-07-09 13:22:00,77.0,44.0,-100.00,SSW,206,2.0,4.0,30,0.00,,,0.00,,2013-07-09 19:22:00,
2013-07-09 13:33:00,80.0,45.0,-100.00,East,93,3.0,7.0,30,0.00,,,0.00,,2013-07-09 19:33:00,
2013-07-09 13:42:00,80.0,38.0,-100.00,East,96,3.0,6.0,22,0.00,,,0.00,,2013-07-09 19:42:00,
2013-07-09 13:52:00,80.0,38.0,-100.00,East,96,3.0,6.0,22,0.00,,,0.00,,2013-07-09 19:52:00,
2013-07-09 14:01:00,81.0,33.0,-100.00,West,267,4.0,6.0,17,0.00,,,0.00,,2013-07-09 20:01:00,
2013-07-09 14:21:00,81.0,35.0,-100.00,WNW,289,4.0,10.0,19,0.00,,,0.00,,2013-07-09 20:21:00,
2013-07-09 14:32:00,81.0,38.0,-100.00,WNW,288,4.0,11.0,21,0.00,,,0.00,,2013-07-09 20:32:00,
2013-07-09 14:42:00,83.0,39.0,-100.00,WNW,294,4.0,7.0,21,0.00,,,0.00,,2013-07-09 20:42:00,
2013-07-09 14:52:00,83.0,39.0,-100.00,WNW,294,4.0,7.0,21,0.00,,,0.00,,2013-07-09 20:52:00,
2013-07-09 15:01:00,82.0,40.0,-100.00,NW,322,3.0,7.0,22,0.00,,,0.00,,2013-07-09 21:01:00,
2013-07-09 15:11:00,83.0,38.0,-100.00,NNE,14,3.0,6.0,21,0.00,,,0.00,,2013-07-09 21:11:00,
2013-07-09 15:22:00,83.0,38.0,-100.00,NNE,14,3.0,6.0,21,0.00,,,0.00,,2013-07-09 21:22:00,
2013-07-09 15:32:00,82.0,38.0,-100.00,NNE,27,4.0,6.0,21,0.00,,,0.00,,2013-07-09 21:32:00,
2013-07-09 15:42:00,84.0,38.0,-100.00,SW,232,2.0,5.0,20,0.00,,,0.00,,2013-07-09 21:42:00,
2013-07-09 15:52:00,84.0,38.0,-100.00,SW,232,2.0,5.0,20,0.00,,,0.00,,2013-07-09 21:52:00,
2013-07-09 16:01:00,84.0,39.0,-100.00,WNW,287,4.0,7.0,20,0.00,,,0.00,,2013-07-09 22:01:00,
2013-07-09 16:22:00,85.0,38.0,-100.00,NE,56,1.0,6.0,19,0.00,,,0.00,,2013-07-09 22:22:00,
2013-07-09 16:33:00,85.0,33.0,-100.00,WNW,282,6.0,10.0,15,0.00,,,0.00,,2013-07-09 22:33:00,
2013-07-09 16:42:00,85.0,34.0,-100.00,NNW,339,3.0,6.0,16,0.00,,,0.00,,2013-07-09 22:42:00,
2013-07-09 16:53:00,85.0,34.0,-100.00,NNW,339,3.0,6.0,16,0.00,,,0.00,,2013-07-09 22:53:00,
2013-07-09 17:01:00,85.0,36.0,-100.00,West,260,7.0,11.0,17,0.00,,,0.00,,2013-07-09 23:01:00,
2013-07-09 17:22:00,85.0,36.0,-100.00,West,270,3.0,6.0,17,0.00,,,0.00,,2013-07-09 23:22:00,
2013-07-09 17:33:00,85.0,36.0,-100.00,West,270,3.0,6.0,17,0.00,,,0.00,,2013-07-09 23:33:00,
2013-07-09 18:01:00,85.0,37.0,-100.00,SW,222,3.0,5.0,18,0.00,,,0.00,,2013-07-10 00:01:00,
2013-07-09 18:11:00,85.0,37.0,-100.00,SW,222,3.0,5.0,18,0.00,,,0.00,,2013-07-10 00:11:00,
2013-07-09 18:22:00,84.0,35.0,-100.00,WSW,246,6.0,8.0,17,0.00,,,0.00,,2013-07-10 00:22:00,
2013-07-09 18:33:00,85.0,35.0,-100.00,West,272,3.0,7.0,17,0.00,,,0.00,,2013-07-10 00:33:00,
2013-07-09 18:52:00,84.0,37.0,-100.00,SW,217,2.0,4.0,19,0.00,,,0.00,,2013-07-10 00:52:00,
2013-07-09 19:01:00,85.0,36.0,-100.00,NNE,23,2.0,3.0,17,0.00,,,0.00,,2013-07-10 01:01:00,
2013-07-09 19:11:00,85.0,35.0,-100.00,SW,222,2.0,4.0,17,0.00,,,0.00,,2013-07-10 01:11:00,
2013-07-09 19:22:00,85.0,35.0,-100.00,SW,222,2.0,4.0,17,0.00,,,0.00,,2013-07-10 01:22:00,
2013-07-09 19:33:00,84.0,33.0,-100.00,NW,309,2.0,6.0,16,0.00,,,0.00,,2013-07-10 01:33:00,
2013-07-09 19:43:00,83.0,33.0,-100.00,NNE,27,2.0,4.0,16,0.00,,,0.00,,2013-07-10 01:43:00,
2013-07-09 19:53:00,83.0,33.0,-100.00,NNE,27,2.0,4.0,16,0.00,,,0.00,,2013-07-10 01:53:00,
2013-07-09 20:01:00,83.0,38.0,-100.00,NNE,32,2.0,3.0,20,0.00,,,0.00,,2013-07-10 02:01:00,
2013-07-09 20:11:00,82.0,33.0,-100.00,North,1,1.0,4.0,17,0.00,,,0.00,,2013-07-10 02:11:00,
2013-07-09 20:22:00,82.0,33.0,-100.00,North,1,1.0,4.0,17,0.00,,,0.00,,2013-07-10 02:22:00,
2013-07-09 20:34:00,81.0,42.0,-100.00,ENE,64,0.0,1.0,25,0.00,,,0.00,,2013-07-10 02:34:00,
2013-07-09 20:42:00,79.0,44.0,-100.00,West,278,0.0,1.0,29,0.00,,,0.00,,2013-07-10 02:42:00,
2013-07-09 21:01:00,73.0,45.0,-100.00,NNE,21,0.0,0.0,36,0.00,,,0.00,,2013-07-10 03:01:00,
2013-07-09 21:11:00,71.0,44.0,-100.00,NNE,24,0.0,0.0,38,0.00,,,0.00,,2013-07-10 03:11:00,
2013-07-09 21:22:00,71.0,44.0,-100.00,NNE,24,0.0,0.0,38,0.00,,,0.00,,2013-07-10 03:22:00,
2013-07-09 22:01:00,67.0,42.0,-100.00,NNE,27,0.0,0.0,40,0.00,,,0.00,,2013-07-10 04:01:00,
2013-07-09 22:11:00,66.0,42.0,-100.00,NNE,25,0.0,0.0,41,0.00,,,0.00,,2013-07-10 04:11:00,
2013-07-09 22:22:00,66.0,42.0,-100.00,NNE,25,0.0,0.0,41,0.00,,,0.00,,2013-07-10 04:22:00,
2013-07-09 22:32:00,66.0,42.0,-100.00,NNE,25,0.0,0.0,41,0.00,,,0.00,,2013-07-10 04:32:00,
2013-07-09 23:02:00,64.0,42.0,-100.00,East,96,0.0,1.0,44,0.00,,,0.00,,2013-07-10 05:02:00,
2013-07-09 23:22:00,63.0,40.0,-100.00,East,100,0.0,1.0,44,0.00,,,0.00,,2013-07-10 05:22:00,
2013-07-09 23:32:00,62.0,39.0,-100.00,East,85,2.0,3.0,44,0.00,,,0.00,,2013-07-10 05:32:00,
2013-07-09 23:42:00,61.0,40.0,-100.00,ENE,73,2.0,2.0,47,0.00,,,0.00,,2013-07-10 05:42:00,